User: anonymous   Login
Location: Caltech
(34.1382°N, 118.1253°W)
Time: 01:55:58
(UTC-08:00)
Language:

Cosmos 1758 Rocket - Orbit

View from above orbital plane
View from above orbital plane
View from above satellite
View from above satellite

Ground track
Ground track

The orbit data is extracted from the following two-line orbital elements,

1 16792U 86046B   16342.24453317  .00000080  00000-0  68770-5 0  9995
2 16792  82.4832  23.0139 0023695 201.7528 224.5254 14.83106206646430
Epoch (UTC): 07 December 2016 05:52:07
Eccentricity: 0.0023695
inclination: 82.4832°
perigee height: 603 km
apogee height: 636 km
right ascension of ascending node: 23.0139°
argument of perigee: 201.7528°
revolutions per day: 14.83106206
mean anomaly at epoch: 224.5254°
orbit number at epoch: 64643

The dashed part of the orbit path shows where the satellite is in the earth's shadow,  

DLR